Hourly Data Report for May 19, 2003

SHERBROOKE A
QUEBEC

45°26'00.000" N
71°41'00.000" W
241.40 m
7028124
71610
YSC

Download Data

Hourly Data (May 2003)
Hourly Data Report for May 19, 2003
TIME
LST
Temp Definition
°C
Dew Point Definition
°C
Rel Hum Definition
%
Precip. Amount Definition
mm

Wind Dir Definition
10's deg

Wind Spd Definition
km/h
Visibility Definition
km
Stn Press Definition
kPa
Hmdx Definition


Wind Chill Definition


Weather Definition


00:00 8.3 LegendMM LegendMM   8 4 15.0 99.71      
01:00 7.2 LegendMM LegendMM   11 6 15.0 99.75      
02:00 5.6 LegendMM LegendMM     0 15.0 99.77      
03:00 4.3 LegendMM LegendMM   9 4 15.0 99.78      
04:00 3.7 LegendMM LegendMM   9 4 15.0 99.81      
05:00 5.5 LegendMM LegendMM   10 7 15.0 99.87      
06:00 8.9 LegendMM LegendMM   8 4 15.0 99.89      
07:00 13.2 6.0 62     0 24.1 99.93     Clear
08:00 17.7 6.8 49   29 4 24.1 99.94     Clear
09:00 20.8 8.5 45   29 7 24.1 99.90     Clear
10:00 23.7 8.9 39     0 24.1 99.86     Clear
11:00 25.9 7.4 31   31 6 24.1 99.80 26   Mainly Clear
12:00 26.3 5.5 26   26 13 24.1 99.73 26   Clear
13:00 27.5 4.5 23   26 17 24.1 99.67 27   Mainly Clear
14:00 28.0 4.8 23   28 9 24.1 99.61 27   Clear
15:00 27.8 4.7 23   34 7 24.1 99.56 27   Mainly Clear
16:00 27.8 5.3 24   27 11 24.1 99.52 27   Mainly Clear
17:00 26.3 LegendMM LegendMM   28 17 15.0 99.50      
18:00 25.2 LegendMM LegendMM   31 7 15.0 99.49      
19:00 22.1 LegendMM LegendMM   29 7 15.0 99.49      
20:00 17.4 LegendMM LegendMM   29 6 15.0 99.51      
21:00 14.1 LegendMM LegendMM   14 7 15.0 99.52      
22:00 12.3 LegendMM LegendMM   9 6 15.0 99.50      
23:00 11.6 LegendMM LegendMM     0 15.0 99.51      

Notes on Data Quality.

Legend

  • E = Estimated
  • M = Missing
  • NA = Not Available*
  • [empty] = Indicates an unobserved value
Date modified: